Flag for U.S.A. Weather past 2 weeks in Gloucester, Massachusetts, U.S.A.

Now
71 °F

Overcast.


Feels Like: 75 °F
Forecast: 52 / 68 °F
Wind: 7 mph from Southwest

Location: Beverly Municipal Airport

Current Time: Jun 29, 2015 at 7:46:21 PM

Latest Report: Jun 29, 2015 at 6:53 PM


Visibility: 10 mi

Pressure: 29.84 "Hg

Humidity: 68%

Dew point: 60 °F

Location of GloucesterLocation

Historic Weather in Gloucester — Graph

°F

Gloucester temperature yesterday

Maximum temperature yesterday: 59 °F (at 12:53 AM)
Minimum temperature yesterday: 52 °F (at 9:53 PM)
Average temperature yesterday: 57 °F

Past Weeks' High & Low Weather Summary

 TemperatureHumidityPressure
High87 °F (Jun 23, 3:53 PM)94% (Jun 21, 8:50 AM)30.17 "Hg (Jun 21, 8:50 AM)
Low50 °F (Jun 27, 1:53 AM)36% (Jun 17, 3:53 PM)29.62 "Hg (Jun 21, 3:53 PM)
Average65 °F72%29.93 "Hg
* Reported Jun 14 6:53 PM — Jun 29 6:53 PM, Gloucester, Weather by CustomWeather, © 2015

Note: Actual official high and low records may vary slightly from our data, if they occured in-between our weather recording intervals... More about our weather records

Advertising

Gloucester weather history for previous 24 hours

 ConditionsComfort  
Time TempWeatherWind HumidityBarometerVisibility
6:53 PM
Mon, Jun 29
71 °FOvercast.7 mph68%29.84 "Hg10 mi
5:53 PM70 °FPartly sunny.5 mph73%29.83 "Hg10 mi
4:53 PM66 °FOvercast.8 mph78%29.83 "Hg10 mi
3:53 PM71 °FMore clouds than sun.7 mph71%29.82 "Hg10 mi
2:53 PM67 °FMostly cloudy.8 mph76%29.82 "Hg10 mi
1:53 PM70 °FMostly cloudy.7 mph68%29.81 "Hg10 mi
12:53 PM69 °FPartly sunny.5 mph70%29.83 "Hg10 mi
11:53 AM64 °FOvercast.7 mph75%29.83 "Hg10 mi
10:53 AM62 °FOvercast.3 mph80%29.82 "Hg10 mi
9:53 AM59 °FLow clouds.5 mph87%29.81 "Hg10 mi
8:53 AM57 °FLow clouds.3 mph87%29.81 "Hg10 mi
7:53 AM55 °FFog.No wind90%29.81 "Hg3 mi
6:53 AM54 °FFog.No wind90%29.81 "Hg5 mi
5:53 AM54 °FOvercast.No wind90%29.80 "Hg10 mi
4:53 AM54 °FOvercast.3 mph90%29.78 "Hg10 mi
3:53 AM53 °FOvercast.No wind89%29.76 "Hg10 mi
2:53 AM52 °FOvercast.3 mph89%29.75 "Hg10 mi
1:53 AM51 °FOvercast.3 mph92%29.75 "Hg10 mi
12:53 AM53 °FMostly cloudy.3 mph89%29.75 "Hg10 mi
12:02 AM53 °FOvercast.6 mph89%29.76 "Hg10 mi
11:53 PM
Sun, Jun 28
53 °FMostly cloudy.5 mph89%29.75 "Hg10 mi
10:53 PM53 °FFog.5 mph89%29.75 "Hg4 mi
9:53 PM52 °FLight rain. Fog.8 mph93%29.75 "Hg3 mi
7:53 PM53 °FLight rain. Fog.9 mph89%29.71 "Hg1 mi
Weather by CustomWeather, © 2015

See weather overviewHow to use our weather pages